TimeEDT,TemperatureF,Dew PointF,Humidity,Sea Level PressureIn,VisibilityMPH,Wind Direction,Wind SpeedMPH,Gust SpeedMPH,PrecipitationIn,Events,Conditions,WindDirDegrees,DateUTC
12:35 AM,39.2,37.4,93,30.21,10.0,Calm,Calm,-,N/A,,Clear,0,2012-10-09 04:35:00
12:55 AM,37.4,35.6,93,30.21,7.0,Calm,Calm,-,N/A,,Clear,0,2012-10-09 04:55:00
1:15 AM,37.4,35.6,93,30.21,10.0,Calm,Calm,-,N/A,,Clear,0,2012-10-09 05:15:00
1:35 AM,35.6,35.6,100,30.21,7.0,Calm,Calm,-,N/A,,Clear,0,2012-10-09 05:35:00
1:55 AM,35.6,33.8,93,30.21,2.0,Calm,Calm,-,N/A,,Mostly Cloudy,0,2012-10-09 05:55:00
2:15 AM,35.6,33.8,93,30.21,1.5,Calm,Calm,-,N/A,,Overcast,0,2012-10-09 06:15:00
2:35 AM,35.6,33.8,93,30.21,1.0,Calm,Calm,-,N/A,,Overcast,0,2012-10-09 06:35:00
2:55 AM,35.6,33.8,93,30.21,0.8,Calm,Calm,-,N/A,,Overcast,0,2012-10-09 06:55:00
3:15 AM,35.6,33.8,93,30.20,0.2,Calm,Calm,-,N/A,Fog,Fog,0,2012-10-09 07:15:00
4:15 AM,35.6,35.6,100,30.19,0.2,Calm,Calm,-,N/A,Fog,Fog,0,2012-10-09 08:15:00
4:35 AM,35.6,35.6,100,30.20,0.5,Calm,Calm,-,N/A,Fog,Fog,0,2012-10-09 08:35:00
4:55 AM,35.6,35.6,100,30.21,0.8,Calm,Calm,-,N/A,,Overcast,0,2012-10-09 08:55:00
5:15 AM,35.6,35.6,100,30.20,0.2,Calm,Calm,-,N/A,Fog,Fog,0,2012-10-09 09:15:00
5:35 AM,35.6,35.6,100,30.20,0.2,Calm,Calm,-,N/A,Fog,Fog,0,2012-10-09 09:35:00
5:55 AM,35.6,35.6,100,30.20,0.2,Calm,Calm,-,N/A,Fog,Fog,0,2012-10-09 09:55:00
6:15 AM,37.4,35.6,93,30.20,0.2,Calm,Calm,-,N/A,Fog,Fog,0,2012-10-09 10:15:00
6:35 AM,37.4,35.6,93,30.21,0.2,Calm,Calm,-,N/A,Fog,Fog,0,2012-10-09 10:35:00
6:55 AM,37.4,35.6,93,30.21,0.2,Calm,Calm,-,N/A,Fog,Fog,0,2012-10-09 10:55:00
7:15 AM,37.4,35.6,93,30.21,0.2,Calm,Calm,-,N/A,Fog,Fog,0,2012-10-09 11:15:00
7:35 AM,35.6,35.6,100,30.22,0.2,Calm,Calm,-,N/A,Fog,Fog,0,2012-10-09 11:35:00
7:55 AM,35.6,35.6,100,30.23,0.2,Calm,Calm,-,N/A,Fog,Fog,0,2012-10-09 11:55:00
8:15 AM,35.6,35.6,100,30.23,0.2,Calm,Calm,-,N/A,Fog,Fog,0,2012-10-09 12:15:00
8:35 AM,37.4,35.6,93,30.23,0.2,Calm,Calm,-,N/A,Fog,Fog,0,2012-10-09 12:35:00
8:55 AM,37.4,35.6,93,30.24,0.2,Calm,Calm,-,N/A,Fog,Fog,0,2012-10-09 12:55:00
9:15 AM,37.4,37.4,100,30.24,0.2,Calm,Calm,-,N/A,Fog,Fog,0,2012-10-09 13:15:00
9:35 AM,39.2,37.4,93,30.24,0.2,Calm,Calm,-,N/A,Fog,Fog,0,2012-10-09 13:35:00
9:55 AM,39.2,37.4,93,30.24,0.2,Calm,Calm,-,N/A,Fog,Fog,0,2012-10-09 13:55:00
10:15 AM,41.0,39.2,93,30.24,0.2,Calm,Calm,-,N/A,Fog,Fog,0,2012-10-09 14:15:00
10:35 AM,41.0,41.0,100,30.23,2.5,Calm,Calm,-,N/A,,Overcast,0,2012-10-09 14:35:00
10:55 AM,41.0,41.0,100,30.23,7.0,Calm,Calm,-,N/A,,Overcast,0,2012-10-09 14:55:00
11:15 AM,42.8,41.0,93,30.23,7.0,Calm,Calm,-,N/A,,Overcast,0,2012-10-09 15:15:00
11:35 AM,42.8,42.8,100,30.22,10.0,South,3.5,-,N/A,,Overcast,190,2012-10-09 15:35:00
11:55 AM,42.8,42.8,100,30.21,10.0,SSW,3.5,-,N/A,,Overcast,210,2012-10-09 15:55:00
12:15 PM,42.8,42.8,100,30.21,10.0,South,3.5,-,N/A,,Overcast,190,2012-10-09 16:15:00
12:35 PM,44.6,42.8,93,30.20,10.0,SSW,3.5,-,N/A,,Overcast,210,2012-10-09 16:35:00
12:55 PM,44.6,44.6,100,30.20,10.0,Calm,Calm,-,N/A,,Overcast,0,2012-10-09 16:55:00
1:15 PM,44.6,44.6,100,30.19,10.0,Calm,Calm,-,N/A,,Overcast,0,2012-10-09 17:15:00
1:35 PM,46.4,44.6,93,30.18,10.0,WSW,4.6,-,N/A,,Overcast,240,2012-10-09 17:35:00
1:55 PM,46.4,44.6,93,30.17,10.0,Calm,Calm,-,N/A,,Overcast,0,2012-10-09 17:55:00
2:15 PM,46.4,44.6,93,30.16,10.0,Calm,Calm,-,N/A,,Overcast,0,2012-10-09 18:15:00
2:35 PM,48.2,46.4,93,30.15,10.0,Calm,Calm,-,N/A,,Overcast,0,2012-10-09 18:35:00
2:55 PM,48.2,46.4,93,30.14,10.0,West,5.8,-,N/A,,Overcast,260,2012-10-09 18:55:00
3:15 PM,50.0,44.6,82,30.14,10.0,WSW,5.8,-,N/A,,Overcast,240,2012-10-09 19:15:00
3:35 PM,51.8,44.6,76,30.13,10.0,Calm,Calm,-,N/A,,Mostly Cloudy,0,2012-10-09 19:35:00
3:55 PM,53.6,42.8,67,30.12,10.0,WSW,5.8,-,N/A,,Scattered Clouds,250,2012-10-09 19:55:00
4:15 PM,53.6,42.8,67,30.11,10.0,WSW,4.6,-,N/A,,Clear,240,2012-10-09 20:15:00
4:35 PM,53.6,42.8,67,30.10,10.0,SSW,4.6,-,N/A,,Clear,210,2012-10-09 20:35:00
4:55 PM,55.4,42.8,63,30.10,10.0,WSW,3.5,-,N/A,,Clear,250,2012-10-09 20:55:00
5:15 PM,55.4,42.8,63,30.09,10.0,Calm,Calm,-,N/A,,Clear,0,2012-10-09 21:15:00
5:35 PM,55.4,42.8,63,30.08,10.0,Calm,Calm,-,N/A,,Clear,0,2012-10-09 21:35:00
5:55 PM,55.4,42.8,63,30.08,10.0,Calm,Calm,-,N/A,,Clear,0,2012-10-09 21:55:00
6:15 PM,53.6,41.0,62,30.08,10.0,South,3.5,-,N/A,,Clear,170,2012-10-09 22:15:00
6:35 PM,53.6,42.8,67,30.08,10.0,Calm,Calm,-,N/A,,Clear,0,2012-10-09 22:35:00
6:55 PM,50.0,42.8,76,30.07,10.0,Calm,Calm,-,N/A,,Clear,0,2012-10-09 22:55:00
7:15 PM,46.4,42.8,87,30.07,7.0,Calm,Calm,-,N/A,,Clear,0,2012-10-09 23:15:00
7:35 PM,46.4,41.0,81,30.08,10.0,Calm,Calm,-,N/A,,Clear,0,2012-10-09 23:35:00
7:55 PM,48.2,41.0,76,30.08,10.0,Calm,Calm,-,N/A,,Clear,0,2012-10-09 23:55:00
8:15 PM,50.0,41.0,71,30.07,10.0,Calm,Calm,-,N/A,,Clear,0,2012-10-10 00:15:00
8:35 PM,50.0,41.0,71,30.07,10.0,Calm,Calm,-,N/A,,Clear,0,2012-10-10 00:35:00
8:55 PM,48.2,41.0,76,30.07,10.0,Calm,Calm,-,N/A,,Clear,0,2012-10-10 00:55:00
9:15 PM,48.2,41.0,76,30.07,10.0,Calm,Calm,-,N/A,,Clear,0,2012-10-10 01:15:00
9:35 PM,44.6,39.2,81,30.06,10.0,Calm,Calm,-,N/A,,Clear,0,2012-10-10 01:35:00
9:55 PM,42.8,37.4,81,30.06,10.0,Calm,Calm,-,N/A,,Clear,0,2012-10-10 01:55:00
10:15 PM,41.0,37.4,87,30.05,10.0,Calm,Calm,-,N/A,,Clear,0,2012-10-10 02:15:00
10:35 PM,41.0,37.4,87,30.06,10.0,Calm,Calm,-,N/A,,Clear,0,2012-10-10 02:35:00
10:55 PM,39.2,35.6,87,30.06,10.0,Calm,Calm,-,N/A,,Clear,0,2012-10-10 02:55:00
11:15 PM,39.2,37.4,93,30.06,10.0,Calm,Calm,-,N/A,,Clear,0,2012-10-10 03:15:00
11:35 PM,37.4,35.6,93,30.05,10.0,Calm,Calm,-,N/A,,Clear,0,2012-10-10 03:35:00
11:55 PM,37.4,35.6,93,30.04,10.0,Calm,Calm,-,N/A,,Clear,0,2012-10-10 03:55:00